This is the latest recevied weather packets stored in our database for station/object K0CPM-2. If no packets are shown the sender has not sent any weather packets the latest 10 day(s).
| Time | Temp. | Humidity | Pressure | Rain* | Wind** | Luminosity | Snow |
|---|---|---|---|---|---|---|---|
| 1777926645 | 26.11° C | 39% | 1012.8 hPa | 0 mm | - | - | - |
| 1777925746 | 26.11° C | 40% | 1013.1 hPa | 0 mm | - | - | - |
| 1777924850 | 26.67° C | 38% | 1013.4 hPa | 0 mm | - | - | - |
| 1777923936 | 26.67° C | 39% | 1013.6 hPa | 0 mm | - | - | - |
| 1777923033 | 26.67° C | 39% | 1013.7 hPa | 0 mm | - | - | - |
| 1777922135 | 26.67° C | 43% | 1013.7 hPa | 0 mm | - | - | - |
| 1777921230 | 26.67° C | 47% | 1014 hPa | 0 mm | - | - | - |
| 1777920334 | 27.22° C | 44% | 1014.2 hPa | 0 mm | - | - | - |
| 1777919433 | 26.67° C | 44% | 1014.3 hPa | 0 mm | - | - | - |
| 1777918525 | 27.22° C | 42% | 1014.4 hPa | 0 mm | - | - | - |
| 1777917625 | 26.67° C | 43% | 1014.4 hPa | 0 mm | - | - | - |
| 1777916721 | 26.11° C | 41% | 1014.6 hPa | 0 mm | - | - | - |
| 1777915819 | 26.67° C | 46% | 1014.6 hPa | 0 mm | - | - | - |
| 1777914918 | 26.67° C | 40% | 1014.6 hPa | 0 mm | - | - | - |
| 1777914018 | 26.11° C | 43% | 1014.5 hPa | 0 mm | - | - | - |
| 1777913117 | 25.56° C | 42% | 1014.9 hPa | 0 mm | - | - | - |
| 1777912215 | 26.11° C | 41% | 1015.1 hPa | 0 mm | - | - | - |
| 1777911314 | 26.11° C | 43% | 1015.1 hPa | 0 mm | - | - | - |
| 1777910415 | 25.56° C | 42% | 1015.2 hPa | 0 mm | - | - | - |
| 1777909510 | 25° C | 39% | 1015.3 hPa | 0 mm | - | - | - |
| 1777908610 | 25.56° C | 42% | 1015.3 hPa | 0 mm | - | - | - |
| 1777907709 | 25° C | 46% | 1015.3 hPa | 0 mm | - | - | - |
| 1777906809 | 25° C | 46% | 1015.3 hPa | 0 mm | - | - | - |
| 1777905907 | 25.56° C | 47% | 1015.4 hPa | 0 mm | - | - | - |
| 1777905006 | 25° C | 50% | 1015.4 hPa | 0 mm | - | - | - |
* Rain latest hour (hover to see other rain measurements)
** Current wind speed in m/s (hover to see current wind gust speed)